Location: ?
(35.3436°N, 139.3168°E)
Time: 08:18:31
(UTC+00:00)

Meteor 1-24 Rocket - Pass Details

Date: 29 October 2020
Orbit: 791 x 927 km, 81.3° (Epoch: 02 December)

Event Time Altitude Azimuth Distance (km) Brightness Sun altitude
Rises 18:54:56 0° 181° (S) 3,360 6.8 -26.5°
Reaches altitude 10° 18:57:18 10° 179° (S) 2,449 6.1 -26.0°
Maximum altitude 19:02:50 72° 96° (E) 907 3.9 -24.9°
Drops below altitude 10° 19:08:37 10° 13° (NNE) 2,557 6.3 -23.7°
Sets 19:11:08 0° 11° (NNE) 3,519 7.1 -23.2°
